{"data":{"norad_id":64480,"epoch":"2026-05-25T04:32:28.920768Z","epoch_age_seconds":48773,"freshness":"FRESH","line1":"1 64480U 25133J   26145.18922362  .00026660  00000+0  90856-3 0  9997","line2":"2 64480  53.1598 121.2663 0001403  71.1647 288.9506 15.30216302 52749","mean_motion":15.30216302,"eccentricity":0.0001403,"inclination_deg":53.1598,"raan_deg":121.2663,"arg_perigee_deg":71.1647,"mean_anomaly_deg":288.9506,"bstar":0.00090856,"rev_number":5274,"period_min":94.104343164944,"perigee_km":474.20487655159,"apogee_km":476.12791348423,"semimajor_km":6853.3033950179,"source":"CELESTRAK","updated_at":"2026-05-25T13:38:20.458045Z"}}